Location: LDNL
(36.4545°S, 141.6685°E)
Time: 03:53:06
(UTC+11:00)

Vanguard 2 - Pass Details

Date: 13 August 2022
Orbit: 552 x 2934 km, 32.9° (Epoch: 06 October)

Event Time Altitude Azimuth Distance (km) Brightness Sun altitude
Rises 15:06:23 0° 325° (NW) 6,633 13.6 28.1°
Reaches altitude 10° 15:11:13 10° 332° (NNW) 5,724 13.5 27.4°
Maximum altitude 15:26:46 39° 31° (NNE) 3,719 11.4 25.3°
Drops below altitude 10° 15:39:45 10° 92° (E) 4,841 11.2 23.3°
Sets 15:43:22 0° 100° (E) 5,555 11.4 22.8°
